Overview Statistics Trail Chart Weather Telemetry Raw packets
 

This is the latest recevied weather packets stored in our database for station/object K6CED. If no packets are shown the sender has not sent any weather packets the latest 10 day(s).

<< 95 96 97 98 99 100 101 >>
Time Temp. Humidity Pressure Rain* Wind** Luminosity Snow
1787957305 37.78° C 38% 1013.2 hPa 0 mm - 531 W/m² -
1787957003 37.78° C 38% 1013.1 hPa 0 mm - 545 W/m² -
1787956703 38.33° C 37% 1013.2 hPa 0 mm - 559 W/m² -
1787956398 38.33° C 36% 1013.3 hPa 0 mm - 573 W/m² -
1787956093 37.78° C 37% 1013.6 hPa 0 mm - 588 W/m² -
1787955789 38.33° C 36% 1013.5 hPa 0 mm - 605 W/m² -
1787955491 38.89° C 37% 1013.4 hPa 0 mm - 619 W/m² -
1787955183 38.33° C 36% 1013.6 hPa 0 mm - 635 W/m² -
1787954879 38.33° C 35% 1013.5 hPa 0 mm - 644 W/m² -
1787954575 38.33° C 36% 1013.6 hPa 0 mm - 657 W/m² -
1787954274 38.33° C 35% 1013.7 hPa 0 mm - 670 W/m² -
1787953974 38.33° C 35% 1013.7 hPa 0 mm - 677 W/m² -
1787953673 38.89° C 34% 1013.7 hPa 0 mm - 683 W/m² -
1787953368 38.33° C 34% 1013.7 hPa 0 mm - 690 W/m² -
1787953066 38.33° C 33% 1014.1 hPa 0 mm - 695 W/m² -
1787952760 38.33° C 33% 1014.1 hPa 0 mm - 701 W/m² -
1787952455 38.33° C 33% 1014.1 hPa 0 mm - 705 W/m² -
1787952152 38.33° C 33% 1014.2 hPa 0 mm - 709 W/m² -
1787951849 38.33° C 35% 1014.2 hPa 0 mm - 715 W/m² -
1787951545 37.78° C 35% 1014.3 hPa 0 mm - 719 W/m² -
1787951241 38.89° C 34% 1014.1 hPa 0 mm - 723 W/m² -
1787950937 38.33° C 34% 1014.3 hPa 0 mm - 725 W/m² -
1787950632 38.33° C 34% 1014.5 hPa 0 mm - 724 W/m² -
1787950329 38.33° C 33% 1014.7 hPa 0 mm - 723 W/m² -
1787950024 37.78° C 35% 1014.5 hPa 0 mm - 722 W/m² -

* Rain latest hour (hover to see other rain measurements)
** Current wind speed in m/s (hover to see current wind gust speed)